Probability
0 0 0 0 0 0 0 0 0 0 0 0 0 0 1 2 2 1 0 0 0 0 0 0 0 0 0 1 2 3 2 1 0 0 0 0 1 1 1 0 1 1 1 1
0 0 0 0 0 0 0 0 0 0 0 0 0 0 1 1 1 0 0 0 0 0 0 0 0 0 0 1 2 3 2 1 0 0 0 0 0 0 0 0 1 1 0 0
0 0 0 0 0 0 0 0 0 0 0 0 0 0 0 0 0 0 0 0 0 0 0 0 0 0 0 1 3 3 1 0 0 0 0 0 0 0 0 0 0 0 0 0
0 0 0 0 0 0 0 0 0 0 0 0 0 0 0 0 0 0 0 0 0 0 0 0 0 0 1 2 3 2 1 0 0 0 0 0 0 0 0 0 0 0 0 0
0 0 0 0 0 0 0 0 0 0 0 0 0 0 0 0 0 0 0 0 0 0 0 0 0 0 1 2 2 1 0 0 0 0 0 1 1 1 0 0 0 0 0 0
0 0 0 0 0 0 0 0 0 0 0 0 0 0 0 0 0 0 0 0 0 0 0 0 0 1 2 2 1 0 0 0 0 0 1 2 2 2 1 0 0 0 0 0
0 0 0 0 0 0 0 0 0 0 0 0 0 0 0 0 0 0 0 0 0 0 0 0 1 2 2 2 1 0 0 0 0 1 2 3 3 2 1 0 0 0 0 0
0 0 0 0 0 0 0 0 0 0 0 0 0 0 0 0 0 0 0 0 0 0 0 0 1 1 1 1 0 0 0 0 0 1 3 3 2 1 0 0 0 0 0 0
0 0 0 0 0 0 0 0 0 0 0 0 0 0 0 0 0 0 0 0 0 0 0 0 0 0 0 0 0 0 0 0 1 2 3 3 1 0 0 0 0 0 0 0
0 0 0 0 0 0 0 0 0 0 0 0 0 0 0 0 0 0 0 0 0 0 0 0 0 0 0 0 0 0 0 1 2 4 4 3 1 0 0 0 0 0 0 0
0 0 0 0 0 0 0 0 0 0 0 0 0 0 0 0 0 0 0 0 0 0 0 0 0 0 0 0 0 0 0 1 3 4 5 3 1 0 0 1 1 0 0 0
0 0 0 0 0 0 0 0 0 0 0 0 0 0 0 0 0 0 0 0 0 0 0 0 0 0 0 0 0 0 0 1 3 5 5 3 2 1 1 1 1 0 0 0
0 0 0 0 0 0 0 0 0 0 0 0 0 0 0 0 0 0 0 0 0 0 0 0 0 0 0 0 0 0 0 1 4 6 5 4 3 2 2 1 0 0 0 0
0 0 0 0 0 0 0 0 0 0 0 0 0 0 0 0 0 0 0 0 0 0 0 0 0 0 0 0 0 0 0 1 3 5 5 4 4 4 3 1 0 0 0 0
0 0 0 0 0 0 0 0 0 0 0 0 0 0 0 0 0 0 0 0 0 0 0 0 0 0 0 0 0 0 0 0 2 4 5 5 5 4 3 2 0 0 0 0
0 0 0 0 0 0 0 0 0 0 0 0 0 0 0 0 0 0 0 0 0 0 0 0 0 0 0 0 0 0 0 0 1 2 3 3 3 2 1 1 0 0 0 0
0 0 0 0 0 0 0 0 0 0 0 0 0 0 0 0 0 0 0 0 0 0 0 0 0 0 0 0 0 0 0 0 0 1 1 1 1 0 0 0 0 0 0 0
0 0 0 0 0 0 0 0 0 0 0 0 0 0 0 0 0 0 0 0 0 0 0 0 0 0 0 0 0 0 0 0 0 0 0 0 0 0 0 0 0 0 0 0
0 0 0 0 0 0 0 0 0 0 0 0 0 0 0 0 0 0 0 0 0 0 0 0 0 0 0 0 0 0 0 0 0 0 0 0 0 0 0 0 0 0 0 0
0 0 0 0 0 0 0 0 0 0 0 0 0 0 0 0 0 0 0 0 0 0 0 0 0 0 0 0 0 0 0 0 0 0 0 0 0 0 0 0 0 0 0 0
0 0 0 0 0 0 0 0 0 0 0 0 0 0 0 0 0 0 0 0 0 0 0 0 0 0 0 0 0 0 0 0 0 0 0 0 0 0 0 0 0 0 0 0
0 0 0 0 0 0 0 0 0 0 0 0 0 0 0 0 0 0 0 0 0 0 0 0 0 0 0 0 0 0 0 0 0 0 0 0 0 0 0 0 0 0 0 0
0 0 0 0 0 0 0 0 0 0 0 0 0 0 0 0 0 0 0 0 0 0 0 0 0 0 0 0 0 0 0 0 0 0 0 0 0 0 0 0 0 0 0 0
0 0 0 0 0 0 0 0 0 0 0 0 0 0 0 0 0 0 0 0 0 0 0 0 0 0 0 0 0 0 0 0 0 0 0 0 0 0 0 0 0 0 0 0
0 0 0 0 0 0 0 0 0 0 0 0 0 0 0 0 0 0 0 0 0 0 0 0 0 0 0 0 0 0 0 0 0 0 0 0 0 0 0 0 0 0 0 0
0 0 0 0 0 0 0 0 0 0 0 0 0 0 0 0 0 0 0 0 0 0 0 0 0 0 0 0 0 0 0 0 0 0 0 0 0 0 0 0 0 0 0 0
0 0 0 0 0 0 0 0 0 0 0 0 0 0 0 0 0 0 0 0 0 0 0 0 0 0 0 0 0 0 0 0 0 0 0 0 0 0 0 0 0 0 0 0
Wind_Speed
11 10 9 9 10 9 10 9 9 8 7 4 2 1 1 2 2 2 3 2 2 2 2 3 3 3 3 3 4 4 4 4 3 3 2 2 2 1 1 1 1 1 2 1
11 11 10 12 12 11 11 10 10 10 8 5 3 2 1 1 2 2 2 2 1 1 2 3 4 4 3 3 4 4 4 4 3 2 2 2 2 2 1 1 1 1 1 1
9 10 11 12 10 10 9 9 9 8 5 3 2 2 0 2 3 2 2 1 1 1 1 2 3 4 4 4 3 4 3 3 2 2 2 2 2 2 2 2 2 2 2 2
8 9 12 5 4 5 6 7 5 4 3 3 3 1 1 3 3 3 2 2 1 0 0 0 1 1 3 3 4 4 3 3 3 3 2 2 2 2 2 2 2 2 3 3
6 9 10 7 4 3 5 5 3 4 3 2 2 1 1 3 3 2 2 2 1 0 1 1 1 1 1 2 3 3 3 3 4 3 3 2 3 2 2 2 2 2 2 2
7 8 8 3 3 3 3 3 3 3 3 2 2 1 1 3 3 3 3 2 1 1 1 1 1 1 1 1 1 2 2 2 2 3 3 3 3 2 2 1 2 2 2 2
9 9 6 3 3 2 3 2 4 4 2 2 1 1 2 3 3 2 2 2 2 1 1 1 1 1 1 1 0 1 1 2 2 2 2 2 2 1 1 1 1 1 2 2
7 9 5 2 2 2 4 4 4 5 4 3 3 4 3 3 2 2 1 1 1 1 1 1 1 1 0 0 0 1 1 1 2 2 2 2 2 2 1 1 1 2 2 2
4 3 1 1 1 3 5 6 5 5 4 3 3 1 2 1 1 1 1 0 1 0 0 0 0 0 0 0 0 1 1 1 1 2 2 2 2 2 2 2 2 2 2 2
7 5 3 4 3 4 6 7 6 6 5 4 3 2 1 1 1 1 1 1 1 1 1 1 1 1 1 1 1 1 2 2 2 2 2 2 1 2 2 2 2 2 2 2
10 7 5 5 5 6 6 7 8 7 6 5 4 4 3 2 1 1 2 1 1 1 1 2 1 1 1 2 1 1 2 2 2 2 2 2 2 2 2 2 3 3 2 2
8 7 7 7 7 7 7 7 7 8 7 5 5 4 4 3 2 2 2 2 2 2 2 2 2 1 1 1 2 2 2 1 1 2 2 2 2 1 1 2 3 4 4 4
9 8 8 8 8 8 7 7 7 7 7 6 5 5 4 4 3 3 3 3 3 3 3 2 2 2 1 1 2 2 2 2 1 1 2 2 3 3 2 1 2 4 5 5
8 9 9 8 8 7 7 7 7 7 7 6 5 4 4 4 3 3 3 3 3 2 2 2 2 2 1 1 1 2 2 2 2 2 2 2 2 2 3 3 2 2 4 6
9 9 9 9 8 8 7 6 6 6 6 6 5 4 4 4 4 4 3 2 3 3 3 3 3 2 1 1 1 2 2 1 2 2 2 2 2 2 2 3 2 2 2 2
10 9 9 9 9 8 7 6 6 6 6 6 5 5 4 4 3 2 2 2 3 3 3 3 3 2 2 2 2 2 2 3 2 2 2 2 2 2 2 2 2 2 2 2
9 9 8 8 8 7 7 7 6 6 6 6 5 5 4 4 3 2 2 3 3 3 3 2 2 1 2 2 2 1 1 2 3 2 2 2 2 2 2 2 2 2 2 3
9 9 8 7 7 7 7 7 6 6 5 5 5 4 4 4 4 4 3 3 3 3 3 2 1 2 2 2 2 2 2 2 2 2 2 2 2 2 2 2 2 2 2 3
8 8 8 8 7 6 6 6 6 5 5 4 4 5 4 4 4 4 4 4 4 4 3 2 3 3 3 3 2 2 2 2 2 2 2 2 3 2 2 2 2 2 1 1
7 7 7 7 7 6 5 5 5 4 4 4 4 5 4 4 4 4 4 4 3 2 2 2 3 3 3 3 2 2 2 3 3 3 2 3 3 2 2 2 2 2 1 1
7 7 7 6 6 6 5 5 5 4 4 4 4 5 5 4 4 3 3 3 2 1 1 2 2 2 2 2 3 2 2 2 3 3 3 3 2 2 2 2 2 2 1 1
6 6 6 6 5 5 5 5 5 4 4 4 4 5 4 4 4 3 3 2 2 2 2 2 2 2 2 2 2 2 2 2 2 2 2 3 3 3 2 2 2 1 1 1
6 6 5 5 5 6 5 5 5 4 4 4 4 4 4 3 2 2 3 2 1 2 2 2 2 3 3 2 2 2 2 2 2 2 2 2 2 2 2 2 2 1 1 1
6 5 5 5 5 5 5 5 4 3 3 3 4 4 3 3 2 2 2 2 2 3 2 2 3 4 3 2 2 2 2 2 2 2 2 2 2 2 2 2 2 1 1 2
5 5 5 5 5 4 4 4 4 3 3 3 3 4 3 2 2 2 1 2 2 2 2 3 4 4 3 2 2 2 2 2 2 2 2 2 2 2 2 2 2 2 2 1
5 4 4 4 4 4 3 3 3 3 3 3 3 2 2 1 1 1 1 1 2 3 2 2 2 3 2 2 2 2 2 2 2 1 2 2 2 2 2 2 2 2 2 2
5 4 3 3 3 3 3 3 3 3 2 2 3 3 2 2 1 1 1 1 2 2 1 1 1 1 1 1 1 1 1 1 1 1 1 2 2 2 2 3 2 2 2 2
Wind_Direction
276 283 280 270 260 258 259 265 270 283 287 284 282 262 210 147 132 120 128 134 144 160 158 155 163 169 163 161 169 172 174 185 191 197 181 173 171 168 195 229 217 184 183 160
278 276 272 268 261 257 258 262 266 274 277 284 299 279 237 132 124 125 123 122 141 169 159 170 177 178 173 175 179 173 172 174 176 182 160 158 169 177 201 219 209 199 178 156
274 278 276 261 254 253 253 255 262 270 284 295 289 288 261 107 114 119 111 111 146 181 168 192 188 176 175 181 170 160 158 157 156 155 149 165 176 179 199 203 196 198 192 175
270 272 263 268 283 268 265 269 272 276 291 298 303 337 61 97 110 126 131 138 149 172 123 165 127 146 167 169 165 159 159 168 167 168 168 171 183 201 202 206 214 209 206 191
260 263 266 270 279 298 280 279 295 293 296 313 333 304 108 71 81 92 109 120 125 116 100 68 61 66 140 158 154 158 169 179 173 170 171 182 189 196 197 207 218 214 207 178
253 258 263 287 357 342 299 278 3 7 12 17 12 286 75 45 57 71 69 75 85 68 71 70 76 101 100 125 137 165 177 176 172 173 174 181 188 189 192 199 202 195 195 182
249 256 261 320 355 335 276 1 24 21 27 348 308 11 30 46 49 64 70 63 60 60 73 66 55 97 145 136 202 183 146 158 169 168 171 173 177 178 177 182 180 194 198 193
243 248 254 20 10 351 351 3 0 4 8 9 23 30 32 42 34 41 54 74 66 43 50 57 79 93 73 147 175 96 106 146 173 165 167 162 157 173 185 187 191 208 212 209
251 254 336 337 357 356 338 323 331 340 346 358 349 0 7 14 7 356 319 179 157 172 165 33 132 174 210 319 132 140 155 180 180 159 148 157 167 175 184 195 200 213 212 219
263 263 283 296 315 342 332 325 331 340 340 341 325 321 323 299 296 306 277 267 209 198 204 219 225 240 222 188 171 182 194 198 190 178 165 154 161 172 179 198 203 210 215 225
273 280 281 283 315 323 321 322 322 326 328 325 319 308 296 283 267 262 270 243 229 224 243 238 229 230 219 183 178 212 225 208 194 179 171 173 179 183 190 196 194 200 214 212
274 294 294 294 301 311 313 311 313 312 310 308 300 292 288 283 269 252 256 251 238 227 239 245 242 236 233 205 194 212 239 231 206 179 174 178 179 178 221 199 189 194 195 198
287 299 296 300 304 305 300 300 303 302 298 295 294 293 285 279 266 259 256 251 240 232 225 233 234 231 224 216 210 222 235 228 210 190 188 198 197 190 203 266 218 207 206 203
299 300 291 293 293 294 290 290 292 291 289 289 288 285 283 279 273 261 256 255 253 241 227 229 230 226 218 214 222 238 238 215 216 204 202 210 214 210 203 205 221 233 221 213
280 281 283 290 293 294 293 289 288 288 289 287 285 279 275 269 265 262 260 251 247 240 233 227 220 220 198 206 234 245 243 215 205 207 206 211 211 214 221 220 218 215 192 192
279 278 276 278 282 285 285 280 276 278 281 280 276 274 270 267 266 262 257 244 233 230 232 227 219 207 191 211 230 231 228 223 222 215 210 208 209 216 223 228 227 221 208 190
286 285 283 281 280 280 278 277 273 275 278 279 278 274 265 261 253 251 250 248 245 234 230 230 219 201 202 216 223 219 218 209 214 227 218 214 209 218 221 223 229 230 222 197
284 288 290 288 286 287 286 284 283 283 283 284 284 277 265 258 250 245 245 243 248 247 233 219 216 224 220 216 219 220 221 210 214 220 217 217 218 215 218 222 230 228 218 205
289 293 294 294 293 287 285 287 285 282 285 287 280 274 266 263 265 260 251 243 240 243 231 205 222 223 218 208 226 218 222 217 212 211 209 215 227 219 217 222 229 224 207 202
292 297 298 297 298 297 295 298 299 292 288 283 276 273 267 264 266 262 253 247 241 237 232 219 221 226 219 192 201 223 229 222 211 206 203 208 219 219 217 216 214 219 211 201
292 295 298 297 299 301 301 298 296 293 289 281 274 270 267 264 264 262 253 258 256 256 241 232 232 229 201 194 215 231 230 227 214 204 200 203 209 214 216 215 209 210 211 211
297 297 300 303 302 299 297 294 290 285 285 279 277 278 271 261 256 260 259 262 260 245 244 226 226 228 219 216 221 226 227 231 224 206 200 200 201 206 211 212 206 206 209 200
297 298 302 305 304 302 302 299 294 283 273 273 270 269 268 264 250 248 261 264 254 244 246 240 248 235 219 213 223 227 227 226 226 220 207 203 204 201 199 200 194 187 183 179
298 300 303 305 305 302 298 299 298 296 294 293 284 275 269 268 265 253 253 245 247 245 251 237 234 227 215 220 224 225 225 226 224 219 204 194 190 187 186 184 183 179 176 181
295 295 295 295 292 291 291 298 305 303 297 292 288 283 272 257 263 273 266 239 229 235 251 236 228 225 217 221 223 226 227 228 230 219 197 179 177 183 185 180 178 176 177 184
291 287 286 285 286 285 287 291 291 287 287 292 296 294 291 285 269 277 281 260 246 248 250 236 216 211 228 237 233 229 227 228 222 205 187 181 179 181 181 179 183 180 182 187
285 284 282 284 288 288 290 288 287 288 287 291 298 302 302 296 278 264 267 264 253 248 245 227 213 215 236 240 237 234 219 202 191 187 192 197 189 187 186 186 181 176 175 178